[[{"header":{"parameterUnit":"m.s-1","parameterCategory":1,"la1":30.2991,"la2":30.254,"lo1":-89.0895,"lo2":-89.0444,"dy":0.0017,"dx":0.0017,"nx":28,"ny":28,"refTime":"2024-10-09T09:00:00:Z","depth":0,"parameterNumber":2,"parameterNumberName":"U-component_of_WINDS"},"data":[0,0,0,0,0,0,0,0,0,0,0,0,0,0,0,0,0,0,0,0,0,0,0,0,0,0,0,0,0,0,0,0,0,0,0,0,0,0,0,0,0,0,0,0,0,0,0,0,0,0,0,0,0,0,0,0,0,0,-1.7065,-1.7065,0,-1.7072,-1.7072,-1.7072,-1.709,-1.7091,-1.7091,-1.7091,-1.7097,-1.7097,-1.7096,0,0,0,0,0,0,0,0,0,0,0,0,0,-1.7068,-1.7068,-1.7065,-1.7065,-1.7066,-1.7072,-1.7072,-1.7072,-1.709,-1.7091,-1.7091,-1.7091,-1.7097,-1.7097,-1.7096,0,0,0,0,0,0,0,0,0,0,0,0,0,-1.707,-1.7068,-1.7065,-1.7075,-1.7076,-1.7072,-1.7072,-1.7072,-1.709,-1.7091,-1.7091,-1.7092,-1.7097,-1.7097,-1.7096,-1.7082,0,0,-1.7095,-1.7095,0,0,0,0,0,0,0,0,-1.707,-1.707,-1.7074,-1.7075,-1.7076,-1.7081,-1.7075,-1.7075,-1.709,-1.7085,-1.7091,-1.7092,-1.7091,-1.7091,-1.7091,-1.7083,-1.7083,-1.7095,-1.7095,-1.7095,-1.7095,0,0,0,0,0,0,0,-1.707,-1.707,-1.7068,-1.7074,-1.7075,-1.7079,-1.708,-1.7075,-1.7084,-1.7085,-1.7087,-1.7087,-1.7092,-1.7091,-1.7091,-1.7083,-1.7095,-1.7095,-1.7095,-1.7095,-1.7063,-1.7063,0,0,0,0,0,0,-1.7068,-1.7069,-1.7068,-1.7068,-1.7074,-1.7079,-1.708,-1.7079,-1.7085,-1.7086,-1.7087,-1.7088,-1.7092,-1.7092,-1.7092,-1.7075,-1.7095,-1.7095,-1.7095,-1.7064,-1.7063,-1.7062,0,0,0,0,0,0,-1.7068,-1.7068,-1.7067,-1.7069,-1.7069,-1.7078,-1.7077,-1.7078,-1.7078,-1.7086,-1.7087,-1.7085,-1.7092,-1.7092,-1.7085,-1.7076,-1.7095,-1.7094,-1.7065,-1.7064,-1.7063,-1.7043,0,0,0,0,0,0,-1.7068,-1.7068,-1.7063,-1.7069,-1.7069,-1.706,-1.7076,-1.7078,-1.7078,-1.7079,-1.7084,-1.7086,-1.7093,-1.7085,-1.7084,-1.7076,-1.7094,-1.7065,-1.7064,-1.7063,-1.7044,-1.7041,-1.7038,0,0,0,0,0,-1.7068,-1.7057,-1.7062,-1.7062,-1.7063,-1.706,-1.706,-1.7069,-1.7077,-1.7072,-1.7076,-1.7085,-1.7077,-1.7084,-1.7083,-1.7074,-1.7066,-1.7065,-1.7063,-1.7045,-1.7042,-1.7039,0,0,0,0,0,0,-1.7049,-1.7058,-1.7064,-1.7054,-1.7056,-1.7063,-1.7057,-1.7065,-1.7064,-1.7066,-1.7076,-1.7077,-1.7068,-1.7071,-1.7078,-1.7061,-1.7073,-1.7071,-1.706,-1.7056,-1.7053,-1.7053,-1.7094,0,0,0,0,0,-1.7043,-1.704,-1.7048,-1.7039,-1.7039,-1.7048,-1.7047,-1.7053,-1.7056,-1.7056,-1.7061,-1.7062,-1.706,-1.7059,-1.7057,-1.7045,-1.7046,-1.7038,-1.7036,-1.7033,-1.7031,-1.7025,-1.7022,-1.7058,-1.7058,-1.7058,0,0,-1.7032,-1.7037,-1.7034,-1.7035,-1.7037,-1.7033,-1.7048,-1.7044,-1.7041,-1.7056,-1.7049,-1.7052,-1.7055,-1.7045,-1.7041,-1.7047,-1.7022,-1.7031,-1.703,-1.7029,-1.7023,-1.702,-1.7017,-1.7057,-1.7057,-1.7057,0,0,-1.7009,-1.7013,-1.7005,-1.7007,-1.7011,-1.7016,-1.7014,-1.702,-1.7023,-1.7016,-1.7027,-1.7024,-1.702,-1.7021,-1.7022,-1.7,-1.7008,-1.6999,-1.6984,-1.6978,-1.6975,-1.6972,-1.6964,-1.6961,-1.6997,-1.6997,-1.6997,0,-1.6995,-1.699,-1.7,-1.6995,-1.6994,-1.7008,-1.7,-1.7002,-1.7004,-1.7004,-1.7011,-1.7006,-1.7009,-1.6999,-1.6994,-1.6994,-1.6992,-1.6998,-1.6974,-1.6972,-1.697,-1.6962,-1.6959,-1.6996,-1.6996,-1.6996,-1.6997,0,-1.6971,-1.6968,-1.6961,-1.6963,-1.6963,-1.6956,-1.6965,-1.6963,-1.697,-1.6975,-1.6968,-1.6972,-1.6971,-1.6969,-1.6976,-1.696,-1.6964,-1.6973,-1.6984,-1.6965,-1.6958,-1.6955,-1.6995,-1.6995,-1.6995,-1.6996,0,0,-1.6935,-1.6944,-1.6941,-1.6943,-1.6948,-1.6945,-1.6939,-1.6939,-1.6937,-1.6938,-1.6933,-1.6929,-1.6937,-1.6938,-1.6944,-1.6939,-1.692,-1.6948,-1.6948,-1.6942,-1.6903,-1.6896,-1.6893,-1.6926,-1.6926,-1.6925,-1.6903,0,-1.6914,-1.6904,-1.6913,-1.6901,-1.6898,-1.6911,-1.6906,-1.6908,-1.6913,-1.6911,-1.6916,-1.6913,-1.6924,-1.6924,-1.6919,-1.6924,-1.6913,-1.6926,-1.6921,-1.6921,-1.6919,-1.6889,-1.6882,-1.686,-1.69,-1.69,-1.6899,0,-1.6886,-1.6887,-1.6875,-1.6881,-1.688,-1.6875,-1.6875,-1.6873,-1.6876,-1.688,-1.688,-1.6888,-1.6883,-1.6895,-1.6887,-1.6895,-1.6894,-1.6896,-1.6896,-1.6895,-1.6908,-1.6887,-1.6854,-1.685,-1.6895,-1.6896,-1.6896,0,-1.6861,-1.6859,-1.6851,-1.6852,-1.6859,-1.6855,-1.6858,-1.6861,-1.686,-1.6861,-1.686,-1.686,-1.6859,-1.6859,-1.6867,-1.6875,-1.6857,-1.687,-1.686,-1.686,-1.6855,-1.6855,-1.682,-1.6855,-1.6855,-1.6855,-1.6855,0,-1.6835,-1.6827,-1.684,-1.6835,-1.6827,-1.6837,-1.6828,-1.6832,-1.6836,-1.6832,-1.6843,-1.6839,-1.685,-1.6847,-1.6854,-1.6846,-1.6846,-1.6848,-1.685,-1.6847,-1.6846,-1.6845,-1.6847,-1.6855,-1.6855,-1.6855,-1.6855,0,-1.6804,-1.6813,-1.6805,-1.6813,-1.6814,-1.6808,-1.6814,-1.681,-1.6815,-1.681,-1.681,-1.6818,-1.6815,-1.6824,-1.6822,-1.6826,-1.6815,-1.6819,-1.6813,-1.6815,-1.6803,-1.6804,-1.6767,-1.6762,-1.68,-1.68,-1.68,0,-1.6787,-1.6781,-1.6788,-1.6786,-1.6788,-1.6786,-1.6785,-1.6795,-1.6794,-1.6797,-1.6792,-1.6791,-1.679,-1.6785,-1.6791,-1.679,-1.6794,-1.6781,-1.6793,-1.679,-1.6793,-1.6793,-1.6792,-1.6778,-1.6777,-1.6777,-1.6776,0,-1.6754,-1.6759,-1.6758,-1.6758,-1.6757,-1.6758,-1.6759,-1.6757,-1.6768,-1.6766,-1.6764,-1.6763,-1.6762,-1.676,-1.676,-1.6762,-1.6771,-1.6773,-1.677,-1.6766,-1.6763,-1.6764,-1.6805,-1.6773,-1.6773,-1.6774,-1.6774,-1.6774,-1.6729,-1.6725,-1.6729,-1.6727,-1.6729,-1.6731,-1.6727,-1.6732,-1.6731,-1.673,-1.6737,-1.6733,-1.6736,-1.6737,-1.6739,-1.6736,-1.6742,-1.6738,-1.6737,-1.6736,-1.6733,-1.6764,-1.6736,-1.6736,-1.6736,-1.6736,-1.6736,0,-1.6697,-1.6701,-1.6699,-1.6701,-1.6699,-1.6708,-1.671,-1.6708,-1.6705,-1.6707,-1.6706,-1.6704,-1.6702,-1.6708,-1.6707,-1.6703,-1.6707,-1.6702,-1.6702,-1.6703,-1.6729,-1.6731,-1.6699,-1.6699,-1.6699,-1.6699,-1.6699,-1.6699,-1.668,-1.6673,-1.6678,-1.6672,-1.6675,-1.6672,-1.6672,-1.6673,-1.6675,-1.6671,-1.667,-1.6674,-1.6678,-1.6677,-1.6676,-1.6678,-1.6676,-1.667,-1.6673,-1.6697,-1.6701,-1.6704,-1.6706,-1.667,-1.667,-1.6648,-1.6647,-1.6647]},{"header":{"parameterUnit":"m.s-1","parameterCategory":1,"la1":30.2991,"la2":30.254,"lo1":-89.0895,"lo2":-89.0444,"dy":0.0017,"dx":0.0017,"nx":28,"ny":28,"refTime":"2024-10-09T09:00:00:Z","depth":0,"parameterNumber":3,"parameterNumberName":"V-component_of_WINDS"},"data":[0,0,0,0,0,0,0,0,0,0,0,0,0,0,0,0,0,0,0,0,0,0,0,0,0,0,0,0,0,0,0,0,0,0,0,0,0,0,0,0,0,0,0,0,0,0,0,0,0,0,0,0,0,0,0,0,0,0,-4.0129,-4.0129,0,-4.0146,-4.0147,-4.0147,-4.0116,-4.0115,-4.0114,-4.0113,-4.0128,-4.013,-4.0131,0,0,0,0,0,0,0,0,0,0,0,0,0,-4.0069,-4.0071,-4.0129,-4.0129,-4.013,-4.0146,-4.0147,-4.0147,-4.0116,-4.0115,-4.0114,-4.0113,-4.0128,-4.0129,-4.0131,0,0,0,0,0,0,0,0,0,0,0,0,0,-4.0092,-4.0071,-4.0129,-4.0116,-4.0116,-4.0146,-4.0147,-4.0147,-4.0116,-4.0115,-4.0113,-4.0112,-4.0127,-4.0129,-4.0131,-4.0175,0,0,-4.0137,-4.0138,0,0,0,0,0,0,0,0,-4.0091,-4.0094,-4.0118,-4.0117,-4.0116,-4.0128,-4.0131,-4.0156,-4.0117,-4.0116,-4.0113,-4.0111,-4.0129,-4.0131,-4.0137,-4.0175,-4.0176,-4.0138,-4.0139,-4.014,-4.014,0,0,0,0,0,0,0,-4.0089,-4.0093,-4.0136,-4.0119,-4.0117,-4.011,-4.0111,-4.0136,-4.0131,-4.0116,-4.0114,-4.0116,-4.0128,-4.0136,-4.0138,-4.0176,-4.0138,-4.0139,-4.0141,-4.0141,-4.0254,-4.0256,0,0,0,0,0,0,-4.0089,-4.0092,-4.0135,-4.0136,-4.01,-4.0112,-4.0114,-4.0126,-4.0131,-4.013,-4.0118,-4.0115,-4.0133,-4.0135,-4.0138,-4.0192,-4.014,-4.0142,-4.0143,-4.0252,-4.0255,-4.0256,0,0,0,0,0,0,-4.0088,-4.0094,-4.0135,-4.0114,-4.0118,-4.0115,-4.0128,-4.0127,-4.0134,-4.0132,-4.0131,-4.0126,-4.0132,-4.0135,-4.0167,-4.0192,-4.0143,-4.0144,-4.025,-4.0253,-4.0255,-4.0299,0,0,0,0,0,0,-4.0087,-4.0093,-4.011,-4.0114,-4.012,-4.0164,-4.013,-4.0128,-4.0138,-4.0134,-4.0139,-4.0139,-4.0131,-4.0164,-4.0169,-4.0194,-4.0146,-4.0248,-4.0252,-4.0255,-4.0295,-4.0302,-4.0309,0,0,0,0,0,-4.0085,-4.012,-4.0111,-4.0116,-4.014,-4.0165,-4.0168,-4.0159,-4.014,-4.0157,-4.0156,-4.0139,-4.0188,-4.0167,-4.0173,-4.0199,-4.0246,-4.0251,-4.0254,-4.0292,-4.0301,-4.0309,0,0,0,0,0,0,-4.0116,-4.012,-4.011,-4.0148,-4.0157,-4.016,-4.018,-4.0168,-4.0181,-4.0178,-4.0165,-4.0166,-4.0201,-4.0202,-4.0179,-4.0243,-4.0214,-4.0219,-4.0241,-4.0249,-4.0256,-4.0256,-4.0148,0,0,0,0,0,-4.0128,-4.0148,-4.015,-4.0183,-4.0188,-4.0184,-4.0194,-4.0187,-4.0195,-4.0198,-4.0199,-4.0207,-4.0225,-4.0237,-4.0253,-4.0294,-4.0297,-4.0315,-4.0322,-4.0328,-4.0333,-4.0359,-4.0368,-4.027,-4.0269,-4.0269,0,0,-4.0151,-4.0156,-4.0169,-4.019,-4.0196,-4.0218,-4.0187,-4.021,-4.0227,-4.0201,-4.0232,-4.0234,-4.0242,-4.028,-4.0297,-4.0282,-4.0361,-4.0333,-4.0337,-4.034,-4.0364,-4.0373,-4.0381,-4.0272,-4.0272,-4.0271,0,0,-4.0207,-4.0211,-4.0241,-4.0248,-4.0259,-4.0256,-4.0263,-4.0269,-4.027,-4.0301,-4.0283,-4.0302,-4.0332,-4.034,-4.0348,-4.0409,-4.0395,-4.0414,-4.0451,-4.0476,-4.0484,-4.0491,-4.0516,-4.0524,-4.0419,-4.0419,-4.0419,0,-4.0235,-4.0267,-4.0258,-4.0284,-4.0294,-4.0274,-4.0305,-4.0312,-4.0326,-4.0334,-4.0318,-4.0358,-4.0361,-4.0403,-4.0418,-4.0424,-4.0433,-4.0414,-4.0484,-4.049,-4.0497,-4.052,-4.0529,-4.0422,-4.0421,-4.0421,-4.0421,0,-4.0303,-4.0326,-4.0349,-4.0366,-4.0379,-4.0407,-4.0402,-4.0416,-4.0408,-4.0407,-4.0441,-4.0445,-4.0463,-4.0472,-4.0463,-4.0513,-4.0504,-4.0486,-4.0457,-4.0509,-4.0531,-4.054,-4.0425,-4.0424,-4.0424,-4.0423,0,0,-4.0378,-4.0392,-4.04,-4.041,-4.042,-4.0438,-4.0466,-4.0485,-4.0499,-4.051,-4.0534,-4.0561,-4.0546,-4.0555,-4.0547,-4.0568,-4.0621,-4.0548,-4.0548,-4.0564,-4.0679,-4.0695,-4.0706,-4.0611,-4.0612,-4.0613,-4.068,0,-4.0435,-4.0485,-4.0479,-4.0527,-4.055,-4.0532,-4.0557,-4.0566,-4.0567,-4.0586,-4.0586,-4.0607,-4.0583,-4.0589,-4.0609,-4.061,-4.0644,-4.0605,-4.0635,-4.0636,-4.0636,-4.0717,-4.0732,-4.0795,-4.0688,-4.0689,-4.069,0,-4.0508,-4.0525,-4.0577,-4.0588,-4.0597,-4.0619,-4.0638,-4.0656,-4.0668,-4.0667,-4.0679,-4.0667,-4.0696,-4.0666,-4.0707,-4.0681,-4.0692,-4.0695,-4.0697,-4.0701,-4.0668,-4.0726,-4.0814,-4.0825,-4.0703,-4.0702,-4.0701,0,-4.0562,-4.0597,-4.0633,-4.0641,-4.0654,-4.0671,-4.0676,-4.0686,-4.0699,-4.0715,-4.0724,-4.0742,-4.0753,-4.0768,-4.0762,-4.074,-4.0805,-4.0774,-4.0807,-4.0807,-4.0823,-4.0822,-4.0917,-4.0826,-4.0826,-4.0826,-4.0825,0,-4.0628,-4.0661,-4.0658,-4.0681,-4.0718,-4.071,-4.0746,-4.075,-4.0759,-4.0783,-4.0766,-4.0789,-4.0779,-4.08,-4.0796,-4.0832,-4.0836,-4.0837,-4.0836,-4.084,-4.0841,-4.0849,-4.0846,-4.0828,-4.0828,-4.0827,-4.0827,0,-4.0695,-4.0694,-4.0733,-4.0743,-4.0746,-4.0773,-4.0782,-4.0803,-4.0803,-4.0833,-4.0839,-4.0839,-4.0864,-4.086,-4.0886,-4.0883,-4.093,-4.0922,-4.0927,-4.0926,-4.0961,-4.0959,-4.1067,-4.1082,-4.0978,-4.0979,-4.098,0,-4.0739,-4.0764,-4.0778,-4.0794,-4.0802,-4.0826,-4.084,-4.0833,-4.0849,-4.0865,-4.0886,-4.0909,-4.0928,-4.0969,-4.0971,-4.0992,-4.0986,-4.1023,-4.0989,-4.0994,-4.0991,-4.0991,-4.0994,-4.103,-4.1031,-4.1032,-4.1033,0,-4.0817,-4.0817,-4.0838,-4.0861,-4.0879,-4.0896,-4.0911,-4.0925,-4.092,-4.0938,-4.0965,-4.0979,-4.1009,-4.1033,-4.1054,-4.1059,-4.1046,-4.1043,-4.1053,-4.1058,-4.1062,-4.1064,-4.0948,-4.1041,-4.104,-4.104,-4.1039,-4.1039,-4.0876,-4.0899,-4.0914,-4.094,-4.0951,-4.0966,-4.0989,-4.0992,-4.1015,-4.104,-4.1034,-4.1064,-4.1077,-4.1103,-4.1112,-4.1136,-4.1122,-4.1135,-4.1138,-4.1142,-4.1148,-4.1056,-4.1139,-4.1138,-4.1138,-4.1138,-4.1138,0,-4.0956,-4.0966,-4.099,-4.1013,-4.1034,-4.1021,-4.1038,-4.1056,-4.1084,-4.1098,-4.1118,-4.115,-4.1174,-4.1179,-4.1202,-4.1221,-4.1216,-4.1228,-4.1228,-4.123,-4.1157,-4.1149,-4.1232,-4.1232,-4.1232,-4.1232,-4.1232,-4.1232,-4.1001,-4.1041,-4.1043,-4.1089,-4.1097,-4.1129,-4.114,-4.1155,-4.1166,-4.1204,-4.1225,-4.1228,-4.1239,-4.1264,-4.1286,-4.1287,-4.1297,-4.1312,-4.1311,-4.1244,-4.1234,-4.1226,-4.1218,-4.1314,-4.1314,-4.1382,-4.1383,-4.1383]}]]